FW6835 Weather Reports


Display with metric or nautical units.
time (UTC)temp
F
wind
direction
speed
MPH
gust
MPH
rain 1hr
in
rain 24hr
in
rain mn
in
humidity
%
barometer
mb
20260831184534 64 329 3.0 15.0 0.00 0.13 0.13 73 1015.3
20260831184037 64 93 3.0 15.0 0.00 0.13 0.13 74 1015.5
20260831183535 64 240 3.0 12.0 0.00 0.13 0.13 75 1015.3
20260831183037 64 238 1.0 7.0 0.00 0.13 0.13 75 1015.2
20260831182536 64 225 1.0 8.0 0.00 0.13 0.13 74 1015.3
20260831182033 64 249 2.0 8.0 0.00 0.13 0.13 74 1015.2
20260831181541 64 228 2.0 7.0 0.00 0.13 0.13 74 1015.2
20260831181033 65 251 1.0 7.0 0.00 0.13 0.13 74 1015.1
20260831180536 65 263 3.0 10.0 0.00 0.13 0.13 73 1014.9
20260831180035 65 261 4.0 10.0 0.00 0.13 0.13 74 1014.9
20260831175532 65 248 2.0 9.0 0.00 0.13 0.13 74 1014.8
20260831175032 65 235 2.0 9.0 0.00 0.13 0.13 74 1014.7
20260831174534 65 240 2.0 8.0 0.00 0.13 0.13 74 1014.7
20260831174032 65 237 2.0 8.0 0.00 0.13 0.13 74 1014.7
20260831173532 65 251 2.0 7.0 0.00 0.13 0.13 74 1014.7
20260831173031 65 251 2.0 7.0 0.00 0.13 0.13 73 1014.7
20260831172535 65 245 1.0 7.0 0.00 0.13 0.13 73 1014.5
20260831172032 66 191 2.0 7.0 0.00 0.13 0.13 73 1014.6
20260831171533 66 241 1.0 4.0 0.00 0.13 0.13 72 1014.6
20260831171032 66 257 1.0 4.0 0.00 0.13 0.13 72 1014.4
20260831170530 66 273 0.0 4.0 0.00 0.13 0.13 71 1014.5
20260831170037 67 252 1.0 7.0 0.00 0.13 0.13 70 1014.4
20260831165532 67 236 2.0 7.0 0.00 0.13 0.13 70 1014.3
20260831165030 67 252 0.0 4.0 0.00 0.13 0.13 70 1014.4
20260831164529 67 265 1.0 4.0 0.00 0.13 0.13 70 1014.6
20260831164033 68 245 1.0 4.0 0.00 0.13 0.13 69 1014.5
20260831163529 68 248 2.0 6.0 0.00 0.13 0.13 68 1014.5
20260831163029 69 260 2.0 6.0 0.00 0.13 0.13 67 1014.6
20260831162528 69 240 1.0 6.0 0.00 0.13 0.13 67 1014.4
20260831162028 70 229 2.0 5.0 0.00 0.13 0.13 66 1014.3
20260831161530 70 234 2.0 5.0 0.00 0.13 0.13 65 1014.5
20260831161030 70 261 2.0 7.0 0.00 0.13 0.13 65 1014.5
20260831160528 70 254 3.0 10.0 0.00 0.13 0.13 64 1014.6
20260831160040 70 276 3.0 10.0 0.00 0.13 0.13 64 1014.4
20260831155527 71 228 2.0 8.0 0.00 0.13 0.13 65 1014.4
20260831155027 70 219 4.0 8.0 0.00 0.13 0.13 64 1014.4
20260831154527 70 219 2.0 9.0 0.00 0.13 0.13 64 1014.4
20260831154028 70 190 2.0 9.0 0.00 0.13 0.13 66 1014.4
20260831153526 70 209 2.0 9.0 0.00 0.13 0.13 64 1014.5
20260831153046 70 148 3.0 8.0 0.00 0.13 0.13 64 1014.5
20260831152525 71 217 3.0 10.0 0.00 0.13 0.13 63 1014.6
20260831152025 71 257 2.0 10.0 0.00 0.13 0.13 63 1014.6
20260831151526 70 209 3.0 10.0 0.00 0.13 0.13 65 1014.6
20260831151025 71 223 3.0 8.0 0.00 0.13 0.13 63 1014.7
20260831150526 71 186 3.0 10.0 0.00 0.13 0.13 63 1014.7
20260831150032 71 234 4.0 10.0 0.00 0.13 0.13 62 1014.7
20260831145524 71 215 3.0 9.0 0.00 0.13 0.13 63 1014.6
20260831145026 71 258 3.0 10.0 0.00 0.13 0.13 63 1014.6
20260831144524 72 244 3.0 10.0 0.00 0.13 0.13 63 1014.7
20260831144024 71 146 3.0 9.0 0.00 0.13 0.13 66 1014.7
20260831143524 71 194 3.0 12.0 0.00 0.13 0.13 64 1014.6
20260831143022 71 249 4.0 10.0 0.00 0.13 0.13 64 1014.7
20260831142521 71 176 2.0 9.0 0.00 0.13 0.13 66 1014.7
20260831142019 70 250 3.0 11.0 0.00 0.13 0.13 68 1014.6
20260831141522 69 154 3.0 11.0 0.00 0.13 0.13 69 1014.8
20260831141022 68 253 3.0 9.0 0.00 0.13 0.13 72 1014.7
20260831140521 67 243 3.0 7.0 0.00 0.13 0.13 73 1014.8
20260831140019 67 186 1.0 7.0 0.00 0.13 0.13 76 1014.7
20260831135518 67 263 3.0 7.0 0.00 0.13 0.13 73 1014.7
20260831135017 67 220 2.0 8.0 0.00 0.13 0.13 75 1014.7
20260831134518 68 241 3.0 8.0 0.00 0.13 0.13 75 1014.8
20260831134017 68 263 2.0 9.0 0.00 0.13 0.13 73 1014.5
20260831133517 69 273 4.0 10.0 0.00 0.13 0.13 71 1014.6
20260831133016 70 175 5.0 10.0 0.00 0.13 0.13 71 1014.5
20260831132519 70 231 3.0 10.0 0.00 0.13 0.13 75 1014.5
20260831132015 70 213 3.0 10.0 0.00 0.13 0.13 77 1014.5
20260831131516 70 196 4.0 9.0 0.00 0.13 0.13 79 1014.6
20260831131015 69 227 2.0 8.0 0.00 0.13 0.13 76 1014.5
20260831130514 69 238 3.0 9.0 0.00 0.13 0.13 76 1014.6
20260831130014 70 207 3.0 9.0 0.00 0.13 0.13 78 1014.7
20260831125516 70 217 4.0 11.0 0.00 0.13 0.13 78 1014.6
20260831125014 69 214 3.0 8.0 0.00 0.13 0.13 78 1014.6
20260831124513 68 265 4.0 8.0 0.00 0.13 0.13 78 1014.6
20260831124012 68 283 4.0 8.0 0.00 0.13 0.13 78 1014.6
20260831123515 68 214 3.0 10.0 0.00 0.13 0.13 80 1014.6
20260831123015 68 196 4.0 9.0 0.00 0.13 0.13 81 1014.5
20260831122511 67 234 4.0 12.0 0.00 0.13 0.13 81 1014.6
20260831122011 67 279 4.0 12.0 0.00 0.13 0.13 81 1014.5
20260831121521 68 260 4.0 12.0 0.00 0.13 0.13 79 1014.5
20260831121018 69 258 5.0 10.0 0.00 0.13 0.13 78 1014.5
20260831120511 69 185 4.0 9.0 0.00 0.13 0.13 79 1014.5
20260831120028 69 238 3.0 9.0 0.00 0.13 0.13 82 1014.4
20260831115509 68 224 3.0 9.0 0.00 0.13 0.13 83 1014.4
20260831115014 68 235 4.0 10.0 0.00 0.13 0.13 83 1014.4
20260831114507 67 295 4.0 14.0 0.00 0.13 0.13 82 1014.3
20260831114006 67 221 2.0 14.0 0.00 0.13 0.13 85 1014.4
20260831113507 67 267 4.0 10.0 0.00 0.13 0.13 86 1014.3
20260831113005 66 203 3.0 10.0 0.00 0.13 0.13 87 1014.4
20260831112502 66 289 5.0 10.0 0.00 0.13 0.13 87 1014.4
20260831112000 65 198 3.0 8.0 0.00 0.13 0.13 90 1014.5
20260831111602 65 232 3.0 10.0 0.00 0.13 0.13 90 1014.5
20260831111101 65 171 3.0 10.0 0.00 0.13 0.13 90 1014.6
20260831110601 64 288 5.0 15.0 0.00 0.13 0.13 89 1014.6
20260831110058 64 158 5.0 15.0 0.00 0.13 0.13 89 1014.7
20260831105600 64 262 4.0 11.0 0.00 0.13 0.13 90 1014.6
20260831105056 63 191 2.0 13.0 0.00 0.13 0.13 93 1014.5
20260831104556 63 186 4.0 13.0 0.00 0.13 0.13 91 1014.6
20260831104054 63 163 2.0 11.0 0.00 0.13 0.13 93 1014.6
20260831103554 63 152 3.0 11.0 0.00 0.13 0.13 93 1014.6
20260831103053 62 200 2.0 8.0 0.00 0.13 0.13 93 1014.6
20260831102553 62 222 3.0 12.0 0.00 0.13 0.13 93 1014.6
20260831102053 62 151 3.0 8.0 0.00 0.13 0.13 94 1014.5
20260831101604 61 279 3.0 10.0 0.00 0.13 0.13 95 1014.5
20260831101052 61 180 3.0 10.0 0.00 0.13 0.13 95 1014.6
20260831095549 61 186 3.0 7.0 0.00 0.13 0.13 95 1014.7
20260831095048 61 150 2.0 7.0 0.00 0.13 0.13 95 1014.6
20260831094601 61 196 3.0 7.0 0.00 0.13 0.13 95 1014.7
20260831091542 60 252 1.0 8.0 0.00 0.13 0.13 95 1014.6
20260831091043 60 252 2.0 8.0 0.00 0.13 0.13 95 1014.5
20260831090542 60 228 2.0 8.0 0.00 0.13 0.13 95 1014.5
20260831090042 60 191 3.0 7.0 0.00 0.13 0.13 94 1014.5
20260831085542 60 194 1.0 7.0 0.00 0.13 0.13 94 1014.3
20260831085041 60 241 3.0 6.0 0.00 0.13 0.13 94 1014.3
20260831084547 60 171 2.0 7.0 0.00 0.13 0.13 95 1014.2
20260831084041 60 145 2.0 7.0 0.00 0.13 0.13 95 1014.1
20260831083541 60 201 1.0 4.0 0.00 0.13 0.13 95 1014.1
20260831083050 60 190 0.0 7.0 0.01 0.13 0.13 95 1014.0
20260831082541 60 192 2.0 7.0 0.02 0.13 0.13 95 1014.0
20260831082040 59 159 0.0 3.0 0.02 0.13 0.13 95 1014.0
20260831081545 59 159 0.0 4.0 0.05 0.13 0.13 95 1013.9
20260831081039 59 145 0.0 6.0 0.06 0.13 0.13 95 1014.0
20260831080541 59 186 2.0 6.0 0.09 0.13 0.13 95 1014.0
20260831080036 58 157 1.0 4.0 0.10 0.13 0.13 95 1013.8
20260831075536 58 211 0.0 2.0 0.12 0.13 0.13 95 1013.9
20260831075036 58 211 0.0 3.0 0.12 0.13 0.13 96 1013.7
20260831074536 58 211 0.0 5.0 0.13 0.13 0.13 95 1013.8
20260831074037 58 210 0.0 5.0 0.13 0.13 0.13 96 1013.8
20260831073536 57 231 0.0 2.0 0.13 0.13 0.13 96 1014.0
20260831073035 57 243 0.0 1.0 0.13 0.13 0.13 95 1013.9
20260831072537 57 243 0.0 2.0 0.12 0.12 0.12 95 1013.9
20260831072034 57 241 0.0 0.0 0.10 0.10 0.10 94 1014.1
20260831071534 57 241 0.0 0.0 0.09 0.09 0.09 94 1014.1
20260831071031 57 241 0.0 0.0 0.07 0.07 0.07 93 1014.3
20260831070530 57 241 0.0 0.0 0.05 0.05 0.05 93 1014.3
20260831070040 57 241 0.0 1.0 0.02 0.02 0.02 92 1014.3
20260831065529 57 241 0.0 3.0 0.02 0.02 0.02 92 1014.4
20260831065029 57 244 0.0 5.0 0.02 0.02 0.02 90 1014.8
20260831064528 57 242 1.0 5.0 0.01 0.01 0.01 89 1015.0
20260831064028 58 240 2.0 7.0 0.00 0.00 0.00 88 1015.3
20260831063530 59 221 4.0 15.0 0.00 0.00 0.00 85 1015.4
20260831063025 62 238 3.0 15.0 0.00 0.00 0.00 81 1015.3
20260831062524 62 59 0.0 0.0 0.00 0.00 0.00 82 1014.3
20260831062023 62 68 0.0 0.0 0.00 0.00 0.00 81 1014.0
20260831061522 62 68 0.0 0.0 0.00 0.00 0.00 78 1013.7
20260831061022 62 71 0.0 0.0 0.00 0.00 0.00 79 1013.7
20260831060521 62 67 0.0 0.0 0.00 0.00 0.00 78 1013.6
20260831060021 62 76 0.0 0.0 0.00 0.00 0.00 79 1013.6
20260831055522 62 9 0.0 0.0 0.00 0.00 0.00 79 1013.5
20260831055023 62 57 0.0 0.0 0.00 0.00 0.00 79 1013.5
20260831054520 62 55 0.0 0.0 0.00 0.00 0.00 77 1013.5
20260831054022 62 55 0.0 0.0 0.00 0.00 0.00 77 1013.5
20260831053519 62 348 0.0 0.0 0.00 0.00 0.00 77 1013.5
20260831053019 62 78 0.0 0.0 0.00 0.00 0.00 77 1013.5
20260831052520 62 49 0.0 0.0 0.00 0.00 0.00 77 1013.5
20260831052017 62 47 0.0 0.0 0.00 0.00 0.00 77 1013.6
20260831051527 62 37 0.0 0.0 0.00 0.00 0.00 78 1013.6
20260831051016 62 53 0.0 0.0 0.00 0.00 0.00 78 1013.7
20260831050516 62 53 0.0 0.0 0.00 0.00 0.00 78 1013.6
20260831050015 62 53 0.0 0.0 0.00 0.00 0.00 78 1013.7
20260831045515 62 53 0.0 0.0 0.00 0.00 0.00 77 1013.6
20260831045014 62 53 0.0 0.0 0.00 0.00 0.00 77 1013.6
20260831044514 62 53 0.0 0.0 0.00 0.00 0.00 77 1013.7
20260831044013 62 53 0.0 0.0 0.00 0.00 0.00 77 1013.7
20260831043514 62 53 0.0 0.0 0.00 0.00 0.00 76 1013.7
20260831043012 62 61 0.0 0.0 0.00 0.00 0.00 77 1013.8
20260831042512 62 61 0.0 0.0 0.00 0.00 0.00 77 1013.7
20260831042011 62 59 0.0 0.0 0.00 0.00 0.00 78 1013.7
20260831041517 62 59 0.0 0.0 0.00 0.00 0.00 78 1013.8
20260831041014 61 59 0.0 0.0 0.00 0.00 0.00 78 1013.7
20260831040511 61 59 0.0 0.0 0.00 0.00 0.00 80 1013.7
20260831040033 61 59 0.0 0.0 0.00 0.00 0.00 79 1013.7
20260831035510 61 59 0.0 0.0 0.00 0.00 0.00 78 1013.8
20260831035012 61 59 0.0 0.0 0.00 0.00 0.00 79 1013.8
20260831034513 60 59 0.0 0.0 0.00 0.00 0.00 79 1013.7
20260831034010 60 59 0.0 0.0 0.00 0.00 0.00 79 1013.8
20260831033510 60 59 0.0 0.0 0.00 0.00 0.00 80 1013.9
20260831033012 60 59 0.0 0.0 0.00 0.00 0.00 80 1013.9
20260831032509 60 59 0.0 0.0 0.00 0.00 0.00 80 1014.1
20260831032009 60 59 0.0 0.0 0.00 0.00 0.00 80 1014.1
20260831031509 60 59 0.0 0.0 0.00 0.00 0.00 80 1014.0
20260831031007 60 59 0.0 0.0 0.00 0.00 0.00 79 1014.1
20260831030509 60 59 0.0 0.0 0.00 0.00 0.00 80 1014.1
20260831030009 60 59 0.0 0.0 0.00 0.00 0.00 80 1014.1
20260831025507 60 59 0.0 0.0 0.00 0.00 0.00 80 1014.2
20260831025006 60 59 0.0 0.0 0.00 0.00 0.00 80 1014.0
20260831024506 60 59 0.0 0.0 0.00 0.00 0.00 80 1014.2
20260831024007 60 59 0.0 0.0 0.00 0.00 0.00 81 1014.2
20260831023506 60 59 0.0 0.0 0.00 0.00 0.00 81 1014.2
20260831023006 59 59 0.0 0.0 0.00 0.00 0.00 81 1014.3
20260831022506 60 59 0.0 0.0 0.00 0.00 0.00 80 1014.4
20260831022004 60 59 0.0 0.0 0.00 0.00 0.00 80 1014.5
20260831021515 60 60 0.0 0.0 0.00 0.00 0.00 80 1014.5
20260831021004 60 60 0.0 0.0 0.00 0.00 0.00 80 1014.7
20260831020504 60 60 0.0 0.0 0.00 0.00 0.00 79 1014.5
20260831020004 60 60 0.0 0.0 0.00 0.00 0.00 80 1014.6
20260831015506 60 60 0.0 0.0 0.00 0.00 0.00 78 1014.6
20260831015006 60 60 0.0 0.0 0.00 0.00 0.00 79 1014.5
20260831014503 60 60 0.0 0.0 0.00 0.00 0.00 79 1014.5
20260831014006 60 60 0.0 0.0 0.00 0.00 0.00 79 1014.6
20260831013503 60 60 0.0 0.0 0.00 0.00 0.00 80 1014.6
20260831013002 60 60 0.0 0.0 0.00 0.00 0.00 80 1014.7
20260831012502 60 60 0.0 0.0 0.00 0.00 0.00 80 1014.8
20260831012002 60 60 0.0 0.0 0.00 0.00 0.00 80 1014.7
20260831011601 60 61 0.0 0.0 0.00 0.00 0.00 80 1014.7
20260831011100 60 61 0.0 0.0 0.00 0.00 0.00 80 1014.8
20260831010601 60 61 0.0 0.0 0.00 0.00 0.00 80 1014.8
20260831010131 60 61 0.0 0.0 0.00 0.00 0.00 80 1014.9
20260831005559 60 61 0.0 2.0 0.00 0.00 0.00 80 1014.8
20260831005059 60 61 0.0 2.0 0.00 0.00 0.00 80 1014.9
20260831004600 60 61 1.0 3.0 0.00 0.00 0.00 79 1015.0
20260831004102 60 61 1.0 3.0 0.00 0.00 0.00 79 1015.0
20260831003559 60 61 1.0 2.0 0.00 0.00 0.00 79 1015.0
20260831003059 60 61 1.0 2.0 0.00 0.00 0.00 79 1015.0
20260831002559 60 61 1.0 2.0 0.00 0.00 0.00 79 1015.0
20260831002058 60 61 1.0 2.0 0.00 0.00 0.00 79 1015.0
20260831001607 60 61 1.0 2.0 0.00 0.00 0.00 79 1015.0
20260831001058 60 61 1.0 3.0 0.00 0.00 0.00 80 1015.0
20260831000558 60 61 1.0 3.0 0.00 0.00 0.00 79 1015.0
20260831000058 60 61 1.0 3.0 0.00 0.00 0.00 79 1015.0
20260830235558 60 61 1.0 3.0 0.00 0.00 0.00 79 1015.1
20260830235057 60 61 1.0 3.0 0.00 0.00 0.00 78 1015.0
20260830234557 60 61 1.0 3.0 0.00 0.00 0.00 79 1014.9
20260830234056 60 61 1.0 3.0 0.00 0.00 0.00 79 1015.1
20260830233558 60 61 1.0 3.0 0.00 0.00 0.00 79 1015.1
20260830233055 60 63 1.0 3.0 0.00 0.00 0.00 79 1015.1
20260830232558 60 63 1.0 3.0 0.00 0.00 0.00 79 1015.1
20260830232054 60 57 1.0 3.0 0.00 0.00 0.00 79 1015.1
20260830231554 60 57 1.0 2.0 0.00 0.00 0.00 79 1015.1
20260830231056 60 49 1.0 2.0 0.00 0.00 0.00 80 1015.2
20260830230552 60 49 0.0 2.0 0.00 0.00 0.00 79 1015.1
20260830230054 61 46 0.0 0.0 0.00 0.00 0.00 79 1015.2
20260830225550 61 44 0.0 0.0 0.00 0.00 0.00 80 1015.2
20260830225050 61 44 0.0 0.0 0.00 0.00 0.00 80 1015.2
20260830224556 61 44 0.0 0.0 0.00 0.00 0.00 80 1015.2
20260830224049 61 44 0.0 0.0 0.00 0.00 0.00 80 1015.2
20260830223552 61 44 0.0 0.0 0.00 0.00 0.00 80 1015.2
20260830223049 62 44 0.0 0.0 0.00 0.00 0.00 79 1015.2
20260830222547 62 44 0.0 0.0 0.00 0.00 0.00 78 1015.1
20260830222048 62 44 0.0 0.0 0.00 0.00 0.00 77 1015.2
20260830221545 62 44 0.0 0.0 0.00 0.00 0.00 76 1015.3
20260830221044 63 44 0.0 0.0 0.00 0.00 0.00 76 1015.3
20260830220543 63 44 0.0 0.0 0.00 0.00 0.00 75 1015.2
20260830220056 63 44 0.0 0.0 0.00 0.00 0.00 76 1015.3
20260830215542 63 44 0.0 0.0 0.00 0.00 0.00 74 1015.3
20260830215041 63 44 0.0 2.0 0.00 0.00 0.00 75 1015.2
20260830214546 63 44 0.0 2.0 0.00 0.00 0.00 75 1015.3
20260830214041 63 296 0.0 0.0 0.00 0.00 0.00 75 1015.3
20260830213541 62 293 0.0 0.0 0.00 0.00 0.00 75 1015.3
20260830213042 62 293 0.0 1.0 0.00 0.00 0.00 77 1015.4
20260830212541 62 291 0.0 1.0 0.00 0.00 0.00 76 1015.2
20260830212041 62 286 0.0 0.0 0.00 0.00 0.00 76 1015.2
20260830211540 62 286 0.0 0.0 0.00 0.00 0.00 76 1015.2
20260830211040 62 286 0.0 0.0 0.00 0.00 0.00 76 1015.2
20260830210540 62 286 0.0 0.0 0.00 0.00 0.00 76 1015.2
20260830210041 62 286 0.0 0.0 0.00 0.00 0.00 76 1015.2
20260830205540 63 285 0.0 0.0 0.00 0.00 0.00 76 1015.2
20260830205040 63 284 0.0 0.0 0.00 0.00 0.00 76 1015.2
20260830204540 63 284 0.0 0.0 0.00 0.00 0.00 76 1015.2
20260830204044 63 284 0.0 0.0 0.00 0.00 0.00 75 1015.2
20260830203540 63 284 0.0 0.0 0.00 0.00 0.00 75 1015.1
20260830203040 63 284 0.0 0.0 0.00 0.00 0.00 76 1015.0
20260830202539 63 284 0.0 0.0 0.00 0.00 0.00 75 1015.1
20260830202038 64 284 0.0 0.0 0.00 0.00 0.00 74 1015.1
20260830201539 64 284 0.0 0.0 0.00 0.00 0.00 74 1015.1
20260830201038 64 284 0.0 0.0 0.00 0.00 0.00 73 1015.1
20260830200539 64 279 0.0 0.0 0.00 0.00 0.00 72 1015.1
20260830200038 64 279 0.0 0.0 0.00 0.00 0.00 72 1015.0
20260830195538 64 279 0.0 0.0 0.00 0.00 0.00 73 1015.1
20260830195042 64 279 0.0 0.0 0.00 0.00 0.00 72 1015.0
20260830194537 64 277 0.0 0.0 0.00 0.00 0.00 72 1015.1
20260830194037 64 277 0.0 0.0 0.00 0.00 0.00 73 1015.0
20260830193536 64 277 0.0 0.0 0.00 0.00 0.00 72 1014.9
20260830193037 64 276 0.0 0.0 0.00 0.00 0.00 73 1014.9
20260830192536 64 275 0.0 0.0 0.00 0.00 0.00 73 1015.0
20260830192037 64 273 0.0 0.0 0.00 0.00 0.00 74 1015.0
20260830191536 64 273 0.0 2.0 0.00 0.00 0.00 74 1015.1
20260830191036 64 273 0.0 2.0 0.00 0.00 0.00 75 1015.0
20260830190536 64 272 1.0 2.0 0.00 0.00 0.00 75 1015.0
20260830190038 64 271 1.0 2.0 0.00 0.00 0.00 75 1015.0
20260830185538 64 270 1.0 3.0 0.00 0.00 0.00 76 1015.1
20260830185035 64 268 1.0 3.0 0.00 0.00 0.00 75 1014.9